Douglas Bisbee, AZ

9:19 AM MST on January 18, 2018 (GMT -0700)
Bisbee Douglas International

Weather History for KDUG - January, 2014

Change the Weather History Date:

Monday, January 6, 2014

  Actual Average Record
Temperature  
Mean Temperature 40 °F 46 °F  
Max Temperature 60 °F 62 °F 74 °F (1956)
Min Temperature 19 °F 29 °F 12 °F (1971)
Degree Days  
Heating Degree Days 25 19  
Month to date heating degree days 117 116  
Since 1 July heating degree days 1211 1140  
Cooling Degree Days 0 0  
Month to date cooling degree days 0 0  
Year to date cooling degree days 0 0  
Moisture  
Dew Point 5 °F    
Average Humidity 36    
Maximum Humidity 62    
Minimum Humidity 9    
Precipitation  
Precipitation 0.00 in 0.02 in 0.54 in (1979)
Month to date precipitation 0.00 0.14  
Year to date precipitation 0.00 0.14  
Sea Level Pressure  
Sea Level Pressure 30.21 in    
Wind  
Wind Speed 10 mph (NE)    
Max Wind Speed 17 mph    
Max Gust Speed 19 mph    
Visibility 10 miles    
Events      
T = Trace of Precipitation, MM = Missing Value Source: NWS Daily Summary

Daily Weather History Graph

Daily Weather History Graph

Search for Another Location

Airport or City:

Trip Planner

Search our weather history database for the weather conditions in past years. The results will help you decide how hot, cold, wet, or windy it might be!

Date:

Astronomy

Jan. 06, 2014 Rise Set
Actual Time 7:18 AM MST 5:30 PM MST
Civil Twilight 6:51 AM MST 5:56 PM MST
Nautical Twilight 6:21 AM MST 6:27 PM MST
Astronomical Twilight 5:52 AM MST 6:56 PM MST
Moon 10:59 AM MST (1/6) 11:40 PM MST (1/6)
Length of Visible Light 11h 05m
Length of Day
10h 11m
Waxing Crescent, 35% of the Moon is Illuminated
Jan 6
Waxing Crescent
Jan 7
First Quarter
Jan 15
Full
Jan 23
Last Quarter
Jan 30
New

Hourly Weather History & Observations

Time (MST) Temp. Windchill Dew Point Humidity Pressure Visibility Wind Dir Wind Speed Gust Speed Precip Events Conditions
12:56 AM 34.0 °F 25.5 °F 12.0 °F 40% 30.14 in 10.0 mi North 11.5 mph - N/A   Clear
1:56 AM 26.1 °F 17.6 °F 10.9 °F 53% 30.16 in 10.0 mi NW 8.1 mph - N/A   Clear
2:56 AM 26.1 °F 16.8 °F 10.9 °F 53% 30.17 in 10.0 mi NNW 9.2 mph - N/A   Clear
3:56 AM 21.0 °F 10.6 °F 10.0 °F 63% 30.20 in 10.0 mi NNW 9.2 mph - N/A   Clear
4:56 AM 27.0 °F 18.7 °F 7.0 °F 43% 30.18 in 10.0 mi North 8.1 mph - N/A   Clear
5:56 AM 19.9 °F 8.6 °F 8.1 °F 60% 30.25 in 10.0 mi NNW 10.4 mph - N/A   Clear
6:56 AM 28.0 °F 18.1 °F 6.1 °F 39% 30.25 in 10.0 mi NNE 11.5 mph - N/A   Clear
7:56 AM 32.0 °F 23.6 °F 5.0 °F 32% 30.28 in 10.0 mi North 10.4 mph - N/A   Clear
8:56 AM 39.9 °F 34.5 °F 7.0 °F 26% 30.31 in 10.0 mi North 8.1 mph - N/A   Clear
9:56 AM 45.0 °F 41.8 °F 8.1 °F 22% 30.31 in 10.0 mi NNW 5.8 mph - N/A   Clear
10:52 AM 53.6 °F - 5.0 °F 14% 30.31 in 10.0 mi East 12.7 mph - N/A   Clear
10:56 AM 54.0 °F - 6.1 °F 15% 30.26 in 10.0 mi East 13.8 mph - N/A   Clear
11:56 AM 55.9 °F - 5.0 °F 13% 30.21 in 10.0 mi East 11.5 mph 18.4 mph N/A   Clear
12:56 PM 57.0 °F - 3.9 °F 12% 30.17 in 10.0 mi East 11.5 mph - N/A   Clear
1:56 PM 59.0 °F - 3.0 °F 11% 30.17 in 10.0 mi East 10.4 mph - N/A   Clear
2:56 PM 60.1 °F - 3.0 °F 10% 30.15 in 10.0 mi East 12.7 mph - N/A   Clear
3:56 PM 60.1 °F - 1.9 °F 10% 30.16 in 10.0 mi East 9.2 mph - N/A   Clear
4:56 PM 57.0 °F - 3.0 °F 11% 30.14 in 10.0 mi East 12.7 mph - N/A   Clear
5:56 PM 48.9 °F - 3.0 °F 15% 30.19 in 10.0 mi East 10.4 mph - N/A   Clear
6:56 PM 46.0 °F 43.1 °F 3.0 °F 17% 30.19 in 10.0 mi ENE 5.8 mph - N/A   Clear
7:56 PM 41.0 °F 34.7 °F 3.0 °F 21% 30.20 in 10.0 mi East 10.4 mph - N/A   Clear
8:56 PM 36.0 °F 29.6 °F 1.9 °F 24% 30.22 in 10.0 mi North 8.1 mph - N/A   Clear
9:56 PM 36.0 °F 32.1 °F 1.9 °F 24% 30.20 in 10.0 mi NNE 4.6 mph - N/A   Clear
10:56 PM 36.0 °F 29.6 °F 3.0 °F 25% 30.18 in 10.0 mi NNE 8.1 mph - N/A   Clear
11:56 PM 28.0 °F 20.0 °F 3.0 °F 34% 30.18 in 10.0 mi North 8.1 mph - N/A   Clear